Overview Statistics Trail Chart Weather Telemetry Raw packets
 

This is the latest recevied weather packets stored in our database for station/object G4WLC-1. If no packets are shown the sender has not sent any weather packets the latest 10 day(s).

<< 77 78 79 80 81 82 83 >>
Time Temp. Humidity Pressure Rain* Wind** Luminosity Snow
1788103935 19.44° C 77% 1005.7 hPa 0 mm - - -
1788103635 19.44° C 76% 1005.8 hPa 0 mm - - -
1788103335 19.44° C 77% 1005.8 hPa 0 mm - - -
1788103035 19.44° C 77% 1005.7 hPa 0 mm - - -
1788102735 19.44° C 76% 1005.8 hPa 0 mm - - -
1788102435 19.44° C 76% 1006 hPa 0 mm - - -
1788102135 18.89° C 77% 1006.4 hPa 0 mm - - -
1788101835 18.89° C 76% 1006.3 hPa 0 mm - - -
1788101535 18.89° C 77% 1006.3 hPa 0 mm - - -
1788101235 19.44° C 76% 1006.3 hPa 0 mm - - -
1788100935 19.44° C 78% 1006.5 hPa 0 mm - - -
1788100635 19.44° C 76% 1006.5 hPa 0 mm - - -
1788100335 20° C 76% 1006.2 hPa 0 mm - - -
1788100035 20° C 76% 1006.3 hPa 0 mm - - -
1788099735 20° C 76% 1006.6 hPa 0 mm - - -
1788099435 20° C 76% 1006.8 hPa 0 mm - - -
1788099135 20° C 77% 1006.8 hPa 0 mm - - -
1788098835 20° C 77% 1006.8 hPa 0 mm - - -
1788098535 20.56° C 77% 1006.9 hPa 0.25 mm - - -
1788098235 20° C 79% 1007.1 hPa 0.76 mm - - -
1788097935 19.44° C 82% 1007.1 hPa 0.76 mm - - -
1788097635 19.44° C 83% 1007.1 hPa 0.76 mm - - -
1788097335 19.44° C 83% 1007 hPa 0.76 mm - - -
1788097035 19.44° C 84% 1007.1 hPa 0.76 mm - - -
1788096735 18.89° C 85% 1007.2 hPa 0.76 mm - - -

* Rain latest hour (hover to see other rain measurements)
** Current wind speed in m/s (hover to see current wind gust speed)